Погода в Логовском

Россия / Алтайский край     53°29′53″N   84°11′54″E
темп.,
°C
ветер,
м/с
пор.,
м/с
влажн.,
%
обл.,
%
осадки,
мм/ч
давл.,
гПа
погр.,
м
2 марта, вт
вт201:00−1зюз61297100 3.9 1009648
04:00−2зюз71397100 0.9 1010744
07:00−3зюз61196100 2.3 1011647
10:00−5зюз71194100 0.6 1013771
13:00−7зюз6991100 0.8 1016597
16:00−7зюз5891100 0.1 1016553
19:00−11з3395100 0.1 101729
22:00−14з229791 0.0 101720
3 марта, ср
ср301:00−16зсз119792 0.0 101720
04:00−16з119796 0.0 101720
07:00−15зсз129696 0.1 101820
10:00−13з1294100 0.3 1019139
13:00−10юз2490100 0.5 1020361
16:00−8зюз4791100 0.2 1021678
19:00−10зюз3795100 0.3 1023171
22:00−11юз489696 0.2 1025212
4 марта, чт
чт401:00−16ююз499684 0.3 1026161
04:00−17ю499623 0.0 1026144
07:00−15ю4119333 0.0 1026216
10:00−10ю61387100 0.0 1025608
13:00−7ююз71282100 0.0 1024719
16:00−4ююз71278100 0.0 1023904
19:00−6ююз51381100 0.0 1022504
22:00−7ююз51780100 0.0 1021495
5 марта, пт
пт501:00−8ю51481100 0.0 1020345
04:00−9ю5108272 0.0 1018189
07:00−10ю368461 0.0 1017123
10:00−7ююз51387100 0.3 1016614
13:00−4ююз81395100 2.3 1016897
16:00−2зюз81396100 2.5 1018939
19:00−3зюз71385100 2.8 1023926
22:00−6юз7158667 0.0 1025632
6 марта, сб
сб601:00−6юз8188477 0.0 1024745
04:00−5юз102079100 0.0 1023872
07:00−4юз102075100 0.0 1022873
10:00−5юз101974100 0.0 1021770
13:00−4юз101874100 0.0 1020925
16:00−3юз10187398 0.0 1019985
19:00−4юз8177981 0.0 1019857
22:00−5зюз81594100 0.4 1020803